Location: Unspecified
(52.4292°N, 19.3359°E)
Time: 23:42:39
(UTC+02:00)

A-11 Canister half - Pass Details

Date: 27 May 2024
Orbit: 1515 x 1685 km, 47.2° (Epoch: 19 June)

Event Time Altitude Azimuth Distance (km) Brightness Sun altitude
Rises 01:13:38 0° 213° (SSW) 4,806 - -15.9°
Reaches altitude 10° 01:17:06 10° 205° (SSW) 3,797 - -15.8°
Exits shadow 01:20:06 20° 193° (SSW) 3,027 9.9 -15.7°
Maximum altitude 01:25:27 35° 145° (SE) 2,309 9.6 -15.6°
Drops below altitude 10° 01:33:35 10° 84° (E) 3,704 11.3 -15.3°
Sets 01:36:55 0° 76° (ENE) 4,676 11.9 -15.2°
